User: anonymous   Login
Location: Augustenthal
(51.7167°N, 10.2833°E)
Time: 03:48:59
(UTC+00:00)
Language:

Meteor 2-4 Rocket - Orbit

View from above orbital plane
View from above orbital plane
View from above satellite
View from above satellite

Ground track
Ground track

The orbit data is extracted from the following two-line orbital elements,

1 11289U 79021B   21207.56947427  .00000165  00000-0  82392-4 0  9996
2 11289  81.2477 140.3147 0074428 296.4014  62.9531 14.11621805182256
Epoch (UTC): 26 July 2021 13:40:02
Eccentricity: 0.0074428
inclination: 81.2477°
perigee height: 800 km
apogee height: 907 km
right ascension of ascending node: 140.3147°
argument of perigee: 296.4014°
revolutions per day: 14.11621805
mean anomaly at epoch: 62.9531°
orbit number at epoch: 18225

The dashed part of the orbit path shows where the satellite is in the earth's shadow,  

DLR